Radiation Dose at Monitoring Post of Fukushima Daini Nuclear Power Station
Date,Time,MP-1(microSv/h),MP-2(microSv/h),MP-3(microSv/h),MP-4(microSv/h),MP-5(microSv/h),MP-6(microSv/h),MP-7(microSv/h),Wind Direction,Wind Velocity(m/s),Rain
2019/02/23,00:00,0.215,0.194,0.315,0.292,0.275,0.159,0.096,north-northwest,5.0,No
2019/02/23,00:10,0.215,0.194,0.315,0.294,0.276,0.159,0.096,northwest,6.1,No
2019/02/23,00:20,0.215,0.194,0.314,0.293,0.277,0.158,0.096,northwest,6.1,No
2019/02/23,00:30,0.214,0.194,0.315,0.294,0.276,0.159,0.095,northwest,6.4,No
2019/02/23,00:40,0.215,0.194,0.314,0.294,0.277,0.158,0.096,north-northwest,7.3,No
2019/02/23,00:50,0.215,0.195,0.315,0.294,0.275,0.159,0.096,northwest,7.5,No
2019/02/23,01:00,0.215,0.194,0.315,0.294,0.277,0.158,0.095,northwest,7.9,No
2019/02/23,01:10,0.214,0.195,0.314,0.295,0.275,0.159,0.096,north-northwest,9.0,No
2019/02/23,01:20,0.215,0.194,0.315,0.295,0.276,0.159,0.096,northwest,8.8,No
2019/02/23,01:30,0.215,0.195,0.315,0.294,0.277,0.158,0.097,northwest,7.6,No
2019/02/23,01:40,0.216,0.194,0.315,0.296,0.276,0.158,0.096,northwest,7.8,No
2019/02/23,01:50,0.215,0.193,0.313,0.295,0.277,0.158,0.096,northwest,7.8,No
2019/02/23,02:00,0.215,0.194,0.315,0.294,0.277,0.158,0.096,northwest,7.3,No
2019/02/23,02:10,0.215,0.194,0.315,0.294,0.276,0.158,0.096,northwest,6.6,No
2019/02/23,02:20,0.216,0.193,0.315,0.294,0.277,0.158,0.095,northwest,5.3,No
2019/02/23,02:30,0.214,0.195,0.314,0.294,0.277,0.158,0.096,northwest,5.5,No
2019/02/23,02:40,0.215,0.194,0.316,0.294,0.276,0.158,0.096,north-northwest,6.4,No
2019/02/23,02:50,0.215,0.194,0.315,0.294,0.276,0.159,0.096,northwest,6.9,No
2019/02/23,03:00,0.215,0.195,0.315,0.295,0.277,0.158,0.096,northwest,7.1,No
2019/02/23,03:10,0.214,0.194,0.315,0.294,0.277,0.158,0.096,northwest,9.2,No
2019/02/23,03:20,0.216,0.193,0.315,0.294,0.276,0.158,0.096,northwest,9.0,No
2019/02/23,03:30,0.216,0.193,0.313,0.295,0.275,0.158,0.095,northwest,9.3,No
2019/02/23,03:40,0.216,0.195,0.315,0.294,0.276,0.158,0.095,northwest,9.0,No
2019/02/23,03:50,0.215,0.194,0.315,0.293,0.276,0.158,0.096,northwest,8.5,No
2019/02/23,04:00,0.215,0.194,0.315,0.294,0.277,0.158,0.095,north-northwest,8.1,No
2019/02/23,04:10,0.216,0.194,0.314,0.294,0.276,0.158,0.095,north-northwest,8.1,No
2019/02/23,04:20,0.215,0.195,0.315,0.293,0.276,0.158,0.096,north-northwest,8.1,No
2019/02/23,04:30,0.214,0.195,0.313,0.294,0.277,0.158,0.096,northwest,8.1,No
2019/02/23,04:40,0.216,0.194,0.315,0.294,0.276,0.158,0.096,northwest,7.3,No
2019/02/23,04:50,0.215,0.194,0.313,0.293,0.276,0.158,0.096,northwest,7.3,No
2019/02/23,05:00,0.216,0.194,0.315,0.293,0.276,0.158,0.095,north-northwest,7.8,No
2019/02/23,05:10,0.215,0.195,0.315,0.294,0.277,0.157,0.095,north-northwest,7.5,No
2019/02/23,05:20,0.215,0.195,0.315,0.293,0.277,0.157,0.095,north-northwest,7.0,No
2019/02/23,05:30,0.216,0.194,0.315,0.293,0.276,0.158,0.096,north-northwest,8.1,No
2019/02/23,05:40,0.216,0.195,0.315,0.293,0.276,0.158,0.095,north-northwest,7.8,No
2019/02/23,05:50,0.215,0.194,0.314,0.294,0.276,0.157,0.095,north-northwest,8.2,No
2019/02/23,06:00,0.215,0.195,0.315,0.294,0.277,0.158,0.095,north-northwest,7.1,No
2019/02/23,06:10,0.215,0.193,0.314,0.294,0.278,0.157,0.096,north-northwest,8.6,No
2019/02/23,06:20,0.216,0.195,0.315,0.293,0.276,0.157,0.095,north-northwest,8.8,No
2019/02/23,06:30,0.215,0.195,0.315,0.293,0.276,0.159,0.096,north-northwest,8.1,No
2019/02/23,06:40,0.215,0.194,0.315,0.295,0.276,0.158,0.096,north-northwest,7.8,No
2019/02/23,06:50,0.215,0.194,0.316,0.294,0.276,0.158,0.096,north-northwest,8.4,No
2019/02/23,07:00,0.216,0.194,0.313,0.294,0.277,0.158,0.095,north-northwest,8.1,No
2019/02/23,07:10,0.215,0.194,0.316,0.294,0.276,0.158,0.095,north-northwest,8.5,No
2019/02/23,07:20,0.216,0.194,0.314,0.294,0.276,0.157,0.095,north-northwest,8.7,No
2019/02/23,07:30,0.215,0.194,0.314,0.295,0.277,0.158,0.096,north-northwest,8.8,No
2019/02/23,07:40,0.215,0.194,0.315,0.294,0.277,0.158,0.095,north-northwest,9.2,No
2019/02/23,07:50,0.216,0.194,0.315,0.293,0.275,0.157,0.096,north-northwest,8.7,No
2019/02/23,08:00,0.214,0.194,0.314,0.294,0.277,0.158,0.096,north-northwest,7.9,No
2019/02/23,08:10,0.215,0.194,0.315,0.295,0.278,0.159,0.095,north-northwest,7.0,No
2019/02/23,08:20,0.215,0.194,0.314,0.293,0.276,0.158,0.096,north-northwest,6.2,No
2019/02/23,08:30,0.216,0.195,0.314,0.293,0.277,0.158,0.095,north-northwest,8.2,No
2019/02/23,08:40,0.215,0.194,0.314,0.294,0.276,0.158,0.095,north-northwest,8.4,No
2019/02/23,08:50,0.214,0.194,0.314,0.294,0.276,0.159,0.095,north,8.1,No
2019/02/23,09:00,0.216,0.195,0.315,0.295,0.276,0.158,0.095,north-northwest,6.6,No
2019/02/23,09:10,0.215,0.194,0.315,0.293,0.277,0.159,0.094,north-northwest,7.5,No
2019/02/23,09:20,0.215,0.194,0.315,0.293,0.277,0.158,0.095,north,9.5,No
2019/02/23,09:30,0.215,0.193,0.315,0.292,0.277,0.159,0.095,north,9.2,No
2019/02/23,09:40,0.215,0.194,0.317,0.294,0.278,0.158,0.096,north,8.7,No
2019/02/23,09:50,0.215,0.194,0.316,0.293,0.277,0.158,0.096,north,6.8,No
2019/02/23,10:00,0.215,0.195,0.314,0.293,0.278,0.159,0.095,north,10.6,No
2019/02/23,10:10,0.216,0.194,0.315,0.295,0.278,0.158,0.095,north,10.1,No
2019/02/23,10:20,0.215,0.194,0.316,0.292,0.278,0.158,0.096,north,10.1,No
2019/02/23,10:30,0.216,0.194,0.315,0.294,0.276,0.159,0.095,north,10.9,No
2019/02/23,10:40,0.215,0.194,0.315,0.294,0.278,0.158,0.096,north,9.0,No
2019/02/23,10:50,0.215,0.196,0.315,0.293,0.279,0.158,0.095,north,10.9,No
2019/02/23,11:00,0.215,0.195,0.315,0.293,0.277,0.158,0.096,north-northeast,10.1,No
2019/02/23,11:10,0.217,0.193,0.316,0.294,0.280,0.157,0.096,north,8.1,No
2019/02/23,11:20,0.216,0.195,0.316,0.294,0.278,0.159,0.095,north-northeast,9.8,No
2019/02/23,11:30,0.215,0.195,0.316,0.293,0.278,0.159,0.095,north,10.4,No
2019/02/23,11:40,0.215,0.194,0.315,0.294,0.278,0.160,0.095,north,10.1,No
2019/02/23,11:50,0.216,0.195,0.315,0.294,0.277,0.160,0.095,north,9.6,No
2019/02/23,12:00,0.215,0.196,0.315,0.295,0.280,0.158,0.096,north,9.5,No
2019/02/23,12:10,0.215,0.195,0.315,0.293,0.277,0.160,0.096,north,8.9,No
2019/02/23,12:20,0.215,0.194,0.315,0.295,0.279,0.159,0.095,north,10.6,No
2019/02/23,12:30,0.216,0.195,0.314,0.292,0.278,0.158,0.095,north,10.3,No
2019/02/23,12:40,0.215,0.194,0.315,0.294,0.278,0.159,0.095,north,8.7,No
2019/02/23,12:50,0.216,0.195,0.317,0.292,0.280,0.158,0.095,north-northeast,9.7,No
2019/02/23,13:00,0.215,0.196,0.314,0.294,0.277,0.158,0.096,north,8.9,No
2019/02/23,13:10,0.216,0.196,0.316,0.294,0.279,0.158,0.095,north-northeast,8.6,No
2019/02/23,13:20,0.216,0.195,0.316,0.294,0.279,0.159,0.095,north-northeast,7.3,No
2019/02/23,13:30,0.216,0.195,0.315,0.294,0.278,0.159,0.095,north,7.9,No
2019/02/23,13:40,0.214,0.195,0.315,0.294,0.280,0.159,0.096,north,10.7,No
2019/02/23,13:50,0.215,0.194,0.316,0.297,0.280,0.158,0.096,north,10.1,No
2019/02/23,14:00,0.216,0.195,0.315,0.294,0.278,0.158,0.095,north,8.5,No
2019/02/23,14:10,0.216,0.195,0.316,0.294,0.279,0.159,0.095,north-northeast,9.5,No
2019/02/23,14:20,0.217,0.196,0.317,0.294,0.279,0.159,0.096,north-northeast,9.0,No
2019/02/23,14:30,0.216,0.195,0.316,0.294,0.279,0.159,0.095,north-northeast,7.5,No
2019/02/23,14:40,0.216,0.195,0.315,0.296,0.281,0.158,0.096,north-northeast,9.8,No
2019/02/23,14:50,0.216,0.195,0.316,0.294,0.280,0.158,0.095,north-northeast,7.3,No
2019/02/23,15:00,0.216,0.194,0.316,0.295,0.279,0.159,0.095,north-northwest,5.9,No
2019/02/23,15:10,0.216,0.195,0.316,0.296,0.281,0.160,0.096,northwest,8.5,No
2019/02/23,15:20,0.217,0.196,0.316,0.295,0.279,0.158,0.095,north-northwest,8.5,No
2019/02/23,15:30,0.216,0.195,0.315,0.295,0.279,0.158,0.095,northwest,7.3,No
2019/02/23,15:40,0.215,0.195,0.313,0.294,0.279,0.157,0.096,north-northwest,8.7,No
2019/02/23,15:50,0.215,0.195,0.315,0.295,0.277,0.159,0.095,north-northwest,10.7,No
2019/02/23,16:00,0.216,0.194,0.316,0.294,0.279,0.159,0.095,northwest,10.3,No
2019/02/23,16:10,0.216,0.195,0.316,0.296,0.278,0.159,0.096,northwest,9.6,No
2019/02/23,16:20,0.216,0.196,0.316,0.295,0.279,0.159,0.096,northwest,9.2,No
2019/02/23,16:30,0.216,0.195,0.318,0.295,0.279,0.159,0.095,northwest,9.7,No
2019/02/23,16:40,0.216,0.195,0.317,0.296,0.279,0.159,0.096,north-northwest,7.9,No
2019/02/23,16:50,0.216,0.195,0.316,0.296,0.278,0.159,0.097,north-northwest,8.6,No
2019/02/23,17:00,0.215,0.196,0.316,0.294,0.280,0.160,0.095,north-northwest,6.7,No
2019/02/23,17:10,0.217,0.195,0.318,0.296,0.279,0.159,0.095,north-northwest,6.7,No
2019/02/23,17:20,0.217,0.195,0.316,0.295,0.279,0.158,0.095,north-northwest,5.7,No
2019/02/23,17:30,0.216,0.195,0.316,0.295,0.279,0.159,0.096,northwest,4.7,No
2019/02/23,17:40,0.217,0.195,0.317,0.295,0.278,0.160,0.095,northwest,6.3,No
2019/02/23,17:50,0.217,0.195,0.316,0.295,0.279,0.158,0.096,northwest,6.1,No
2019/02/23,18:00,0.216,0.196,0.317,0.295,0.278,0.158,0.096,west-northwest,8.1,No
2019/02/23,18:10,0.217,0.195,0.317,0.296,0.278,0.160,0.096,northwest,9.8,No
2019/02/23,18:20,0.216,0.195,0.316,0.295,0.278,0.159,0.096,northwest,8.6,No
2019/02/23,18:30,0.216,0.196,0.317,0.295,0.277,0.159,0.096,northwest,6.6,No
2019/02/23,18:40,0.216,0.196,0.317,0.297,0.279,0.159,0.096,northwest,8.8,No
2019/02/23,18:50,0.217,0.195,0.317,0.295,0.279,0.159,0.096,northwest,7.7,No
2019/02/23,19:00,0.216,0.196,0.317,0.295,0.279,0.158,0.096,northwest,8.4,No
2019/02/23,19:10,0.216,0.195,0.316,0.296,0.278,0.159,0.096,west-northwest,8.1,No
2019/02/23,19:20,0.217,0.195,0.316,0.296,0.278,0.159,0.096,northwest,7.3,No
2019/02/23,19:30,0.216,0.196,0.316,0.297,0.278,0.159,0.096,northwest,5.6,No
2019/02/23,19:40,0.216,0.196,0.317,0.295,0.279,0.159,0.096,northwest,7.8,No
2019/02/23,19:50,0.217,0.196,0.316,0.295,0.278,0.159,0.096,northwest,8.1,No
2019/02/23,20:00,0.216,0.196,0.319,0.295,0.278,0.160,0.096,northwest,6.3,No
2019/02/23,20:10,0.216,0.195,0.317,0.296,0.278,0.158,0.095,northwest,5.4,No
2019/02/23,20:20,0.217,0.196,0.316,0.296,0.278,0.159,0.097,north-northwest,4.9,No
2019/02/23,20:30,0.216,0.196,0.315,0.295,0.279,0.159,0.096,northwest,4.5,No
2019/02/23,20:40,0.216,0.196,0.317,0.295,0.279,0.158,0.096,northwest,4.7,No
2019/02/23,20:50,0.217,0.196,0.318,0.295,0.279,0.160,0.096,northwest,4.8,No
2019/02/23,21:00,0.216,0.195,0.316,0.294,0.278,0.159,0.095,north-northwest,5.5,No
2019/02/23,21:10,0.217,0.196,0.315,0.296,0.277,0.160,0.096,northwest,6.1,No
2019/02/23,21:20,0.217,0.196,0.316,0.295,0.278,0.160,0.096,northwest,5.6,No
2019/02/23,21:30,0.217,0.196,0.317,0.297,0.278,0.159,0.096,northwest,5.5,No
2019/02/23,21:40,0.216,0.196,0.316,0.295,0.278,0.159,0.096,northwest,4.6,No
2019/02/23,21:50,0.217,0.194,0.316,0.295,0.277,0.158,0.096,west-northwest,2.8,No
2019/02/23,22:00,0.217,0.195,0.316,0.296,0.277,0.159,0.096,west-northwest,1.5,No
2019/02/23,22:10,0.217,0.196,0.316,0.296,0.276,0.158,0.096,west,1.9,No
2019/02/23,22:20,0.217,0.196,0.317,0.296,0.277,0.159,0.096,west-northwest,2.8,No
2019/02/23,22:30,0.216,0.195,0.316,0.296,0.277,0.159,0.096,west-northwest,3.3,No
2019/02/23,22:40,0.217,0.196,0.316,0.296,0.278,0.160,0.096,west-northwest,3.1,No
2019/02/23,22:50,0.216,0.195,0.316,0.296,0.276,0.159,0.096,west-northwest,2.5,No
2019/02/23,23:00,0.216,0.196,0.316,0.295,0.278,0.159,0.096,northwest,2.9,No
2019/02/23,23:10,0.215,0.196,0.317,0.296,0.277,0.159,0.096,northwest,3.5,No
2019/02/23,23:20,0.215,0.196,0.317,0.295,0.277,0.158,0.096,northwest,2.7,No
2019/02/23,23:30,0.217,0.195,0.317,0.297,0.277,0.158,0.096,northwest,2.5,No
2019/02/23,23:40,0.215,0.195,0.315,0.295,0.277,0.160,0.096,west-northwest,2.6,No
2019/02/23,23:50,0.217,0.195,0.317,0.294,0.277,0.159,0.097,northwest,2.8,No
